Miscellaneous Local Product
Issued by NWS Hastings, NE

Home | Current Version | Previous Version | Text Only | Print | Product List | Glossary On
Versions: 1 2 3 4 5 6 7 8 9 10 11 12 13 14 15 16 17 18 19 20 21 22 23 24 25 26 27 28 29 30 31 32 33 34 35 36 37 38 39 40 41 42 43 44 45 46 47 48 49 50
000
AXUS43 KGID 211802
MISGRI

GID CWA HOURLY WEATHER ROUNDUP
NATIONAL WEATHER SERVICE HASTINGS NE
1200 PM CST FRI NOV 21 2014

NOTE: "FAIR" INDICATES FEW OR NO CLOUDS BELOW 12,000 FEET WITH NO
SIGNIFICANT WEATHER AND/OR OBSTRUCTIONS TO VISIBILITY.

...SOUTH CENTRAL NEBRASKA...

CITY           SKY/WX    TMP DP  RH WIND       PRES   REMARKS
GRAND ISLAND   PTSUNNY   41  25  53 S10       30.08F
HASTINGS       PTSUNNY   39  23  52 S5        30.07F
KEARNEY        PTSUNNY   37  25  60 S13       30.06F WCI  29
ORD            PTSUNNY   44  28  53 S16       30.00F
YORK           PTSUNNY   32  25  74 S9        30.10F WCI  24
AURORA         PTSUNNY   35  25  67 S7        30.08F WCI  29
LEXINGTON      CLOUDY    44  29  55 SW12      30.02F
HOLDREGE       PTSUNNY   39  25  57 SW7       30.05F WCI  34
HEBRON         MOSUNNY   37  23  57 S5        30.12F WCI  33

...NEBRASKA PANHANDLE...

CITY           SKY/WX    TMP DP  RH WIND       PRES   REMARKS
CHADRON        PTSUNNY   45  29  53 CALM      29.87F
ALLIANCE       MOSUNNY   51  24  34 SW7       29.90F
SCOTTSBLUFF    PTSUNNY   50  24  36 CALM      29.92F
SIDNEY         MOSUNNY   52  21  29 W6        29.95F

...WESTERN AND NORTH CENTRAL NEBRASKA...

CITY           SKY/WX    TMP DP  RH WIND       PRES   REMARKS
VALENTINE      PTSUNNY   43  28  55 SW14      29.87F
AINSWORTH      PTSUNNY   41  28  58 S15G21    29.89F
ONEILL         PTSUNNY   39  31  72 S14G22    29.95F WCI  30
BROKEN BOW     PTSUNNY   44  30  57 SW17G28   29.98F
IMPERIAL       PTSUNNY   48  28  46 S8        29.97F
NORTH PLATTE   PTSUNNY   45  28  51 S10       29.98F
MCCOOK         MOSUNNY   48  30  49 S7        30.01F

...EASTERN NEBRASKA...

CITY           SKY/WX    TMP DP  RH WIND       PRES   REMARKS
NORFOLK        PTSUNNY   32  24  72 S13       30.05F WCI  22
SO SIOUX CITY  MOSUNNY   35  23  61 S15       30.11F WCI  25
TEKAMAH        SUNNY     36  23  59 S16       30.14F WCI  26
COLUMBUS       PTSUNNY   30  21  69 S12       30.11F WCI  21
ALBION         PTSUNNY   34  24  67 S12G17    30.04F WCI  25
OMAHA EPPLEY   PTSUNNY   34  22  61 S14       30.16F WCI  25
OFFUTT AFB     PTSUNNY   34  22  61 SE15      30.15F WCI  24
MILLARD        PTSUNNY   33  22  64 SE10      30.15F WCI  25
LINCOLN        PTSUNNY   36  24  62 S12       30.15F WCI  28
NEBRASKA CITY  CLOUDY    33  18  54 SE9       30.15F WCI  25
BEATRICE       PTSUNNY   38  24  56 S7        30.12F WCI  33
FALLS CITY     MOSUNNY   41  24  51 SE14      30.16F

...NORTHERN KANSAS...

CITY           SKY/WX    TMP DP  RH WIND       PRES   REMARKS
GOODLAND       SUNNY     50  31  48 S18       29.98F
HILL CITY      MOSUNNY   49  30  48 VRB7      30.05F
NORTON         CLEAR     48  27  43 SE7       30.03F
PHILLIPSBURG   SUNNY     39  25  56 E3        30.08F
SMITH CENTER   SUNNY     37  21  52 SE6       30.10F WCI  33
BELOIT         SUNNY     41  25  52 E3        30.09F
HAYS           MOSUNNY   39  23  52 S5        30.07F
RUSSELL        CLOUDY    38  27  64 CALM      30.06F
CONCORDIA      SUNNY     42  26  53 E5        30.10F
SALINA         CLOUDY    33  28  81 SE5       30.11F HAZE    WCI  29
TOPEKA         CLOUDY    38  29  70 E9        30.17F WCI  31



USA.gov is the U.S. government's official web portal to all federal, state and local government web resources and services.